Location: Rometta
(44.2000°N, 10.0500°E)
Time: 07:19:07
(UTC+00:00)

Daily predictions for brighter satellites

Satellite Brightness Start Highest point End
(mag) Time Altitude Azimuth Time Altitude Azimuth Time Altitude Azimuth
CZ-4B R/B 3.2 16:37:23 10° SSE 16:42:53 75° ENE 16:48:31 10° N
SL-24 R/B 4.1 16:39:11 10° SSE 16:43:29 70° ENE 16:48:04 10° N
Aureole 2 Rocket 4.2 16:44:59 10° ESE 16:46:14 12° E 16:47:30 10° ENE
AQUARIUS 4.1 16:43:19 10° SSE 16:47:48 81° ENE 16:52:19 10° N
Cosmos 1603 3.9 16:45:48 10° NNW 16:51:33 85° WSW 16:57:17 10° SSE
Meteor 2-10 Rocket 4.2 16:47:13 10° N 16:52:13 34° ENE 16:57:00 10° SE
CZ-2D R/B 4.1 16:52:21 10° SE 16:55:42 29° ENE 16:59:04 10° N
Cosmos 1606 Rocket 3.6 16:53:11 10° N 16:57:33 61° E 17:01:54 10° SSE
YAOGAN 1 3.9 16:55:25 10° ESE 16:58:29 19° ENE 17:01:33 10° NNE
Cosmos 1892 Rocket 4.0 16:54:33 10° SSE 16:58:35 39° E 17:02:38 10° NNE
USA 234 4.3 16:53:27 10° ENE 16:58:54 29° N 17:04:20 10° NW
H-2A R/B 2.2 16:54:37 10° NNE 16:59:07 85° WNW 17:03:28 10° SSW
TELKOM 3 4.0 16:57:03 10° SSW 16:59:10 32° SE 17:01:03 13° E
FengYun 1-2 T 4.3 16:54:53 10° SSE 17:00:26 86° ENE 17:06:05 10° NNW
ATLAS 5 CENTAUR R/B 2.1 16:56:45 10° SW 17:00:40 52° NW 17:05:05 10° NNE
CZ-4C R/B 4.4 16:59:58 10° N 17:02:54 36° WNW 17:05:50 10° SW
SL-14 R/B 3.7 17:00:14 10° SSW 17:04:04 65° W 17:07:57 10° N
Helios 1A Rocket 4.4 17:01:40 10° ESE 17:04:22 17° ENE 17:07:05 10° NNE
RESURS DK-1 4.0 17:02:15 10° WSW 17:06:00 32° NW 17:09:45 10° N
MOS 1 Rocket 3.7 17:04:34 10° NNE 17:08:30 33° E 17:12:22 10° SSE
ATLAS 3B R/B 3.7 17:02:40 10° NW 17:09:26 54° WSW 17:16:28 10° SSE
Cosmos 2228 3.0 17:05:15 10° N 17:09:32 88° WSW 17:13:49 10° S
BREEZE-M DEB (TANK) 4.0 17:08:15 10° W 17:10:46 26° SSW 17:13:47 10° SSE
Cosmos 2142 Rocket 4.5 17:05:29 10° N 17:11:40 87° E 17:17:48 10° S
Meteor 2-5 Rocket 4.1 17:07:23 10° SSW 17:12:56 69° WNW 17:18:29 10° N
SKYMED 2 3.7 17:10:13 10° NNE 17:14:29 52° E 17:18:43 10° S
CZ-4C R/B 3.8 17:10:11 10° W 17:14:36 26° NNW 17:19:46 10° NNE
SJ 16-02 2.3 17:12:08 10° SSE 17:15:54 28° E 17:18:57 14° NE
Cosmos 1538 Rocket 4.1 17:11:02 10° NNW 17:16:07 54° ENE 17:21:10 10° SE
Aureole 3 4.1 17:13:34 10° NNE 17:16:15 20° ENE 17:18:39 10° ESE
Nadezhda 4 Rocket 4.3 17:11:23 10° SSE 17:17:13 43° E 17:23:00 10° NNE
CZ-3B R/B 2.9 17:15:16 10° NNW 17:17:30 25° NE 17:20:09 16° E
Cosmos 1777 Rocket 4.0 17:13:52 10° SSW 17:19:06 78° ESE 17:24:25 10° NNE
Cosmos 2263 Rocket 3.2 17:15:46 10° SW 17:21:13 47° WNW 17:26:42 10° NNE
YAOGAN 3 4.5 17:16:54 10° SSE 17:21:14 73° ENE 17:25:35 10° N
Cosmos 1455 2.9 17:23:32 10° N 17:26:59 32° ENE 17:30:26 10° SE
Cosmos 2058 Rocket 3.1 17:24:31 10° N 17:29:00 65° E 17:33:28 10° SSE
Cosmos 1300 4.2 17:27:34 10° NNW 17:31:09 39° W 17:34:42 10° SSW
Cosmos 1703 4.4 17:28:48 10° SE 17:31:37 22° E 17:31:37 22° E
X-37B 1.6 17:29:08 10° SW 17:32:04 33° SSE 17:33:14 25° ESE
Meteor 2-13 Rocket 4.5 17:29:42 10° S 17:35:37 57° E 17:41:37 10° NNE
ARGOS 3.7 17:31:56 10° SE 17:36:42 34° ENE 17:41:30 10° N
Cosmos 44 4.4 17:36:01 10° SSE 17:39:44 23° ESE 17:40:17 23° E
Okean 1-7 Rocket 3.5 17:35:34 10° S 17:40:04 73° E 17:44:39 10° NNE
CREW DRAGON DEMO-1 DEB 4.0 17:39:22 10° NW 17:41:52 26° NNE 17:41:52 26° NNE
Lacrosse 5 2.0 17:37:18 10° NW 17:42:15 52° NE 17:45:00 25° E
Cosmos 1939 Rocket 3.9 17:39:51 10° S 17:43:51 50° W 17:47:52 10° NNW
ISS -3.6 17:40:48 10° SW 17:44:06 59° SE 17:45:00 41° E
Cosmos 1726 Rocket 4.4 17:40:13 10° NNW 17:44:28 53° W 17:48:44 10° S
ERS-2 2.0 17:42:03 14° NNE 17:45:07 71° ESE 17:48:44 10° S
CSL-04 Debris 4.5 17:41:43 10° SE 17:46:45 42° ENE 17:51:48 10° N
CZ-2C R/B 3.6 17:45:49 26° ENE 17:46:55 27° E 17:51:36 10° SSE
PSLV R/B 3.9 17:43:31 11° NNE 17:47:31 62° ESE 17:51:41 10° S
EXPRESS MD2 4.0 17:39:50 10° WNW 17:47:55 90° ENE 17:50:21 25° ESE
COSMOS 2455 3.0 17:42:32 10° SW 17:48:34 78° WNW 17:54:02 13° NNE
Cosmos 1626 Rocket 3.7 17:47:06 10° SSE 17:51:19 49° E 17:54:00 21° NNE
Cosmos 1844 3.7 17:47:54 10° S 17:53:26 60° ESE 17:57:10 21° NE
Cosmos 2026 Rocket 4.3 17:48:46 10° SSE 17:54:19 38° E 17:59:58 10° NNE
IRS-1C Rocket 4.2 17:49:20 10° SSE 17:54:34 79° WSW 17:59:52 10° NNW
Cosmos 990 Rocket 4.5 17:50:29 10° SSE 17:55:14 37° ESE 17:56:17 33° ENE
Cosmos 1833 Rocket 4.2 17:51:45 10° N 17:54:41 18° NNE 17:54:41 18° NNE
CZ-4 R/B 1.3 17:51:59 10° SSE 17:56:07 85° ENE 18:00:11 10° NNW
Cosmos 2082 Rocket 4.2 17:54:52 10° NNE 17:55:55 12° NNE 17:55:55 12° NNE
NOAA 15 4.5 17:52:10 10° SSE 17:57:23 76° ENE 18:02:41 10° N
COSMO-SKYMED 1 3.5 17:58:23 10° N 18:02:34 47° WNW 18:06:44 10° SW
DMSP B5D1-3 4.4 18:01:31 15° NNE 18:05:48 63° ESE 18:10:51 10° S
USA 267 3.8 18:04:12 31° E 18:06:15 38° SE 18:12:15 10° SSW
Okean-O 2.8 18:07:48 10° S 18:12:14 74° WSW 18:16:41 10° NNW
CZ-4B R/B 3.8 18:09:54 10° NNW 18:12:36 22° WNW 18:15:15 10° WSW
CZ-2C R/B 4.0 18:08:40 10° S 18:13:46 52° W 18:19:11 10° NNW
Cosmos 1844 Rocket 2.8 18:09:47 10° SSW 18:15:27 76° WNW 18:19:24 21° NNE
H-2A R/B 2.0 18:11:12 10° S 18:16:10 81° WSW 18:21:17 10° NNW
Cosmos 923 Rocket 3.9 18:12:29 10° NNW 18:17:52 82° ENE 18:23:10 10° SSE
Meteor 1-21 Rocket 4.2 18:12:21 10° SSW 18:17:52 84° W 18:23:27 10° N
Aureole 2 Rocket 3.8 18:16:09 10° SW 18:18:52 30° WNW 18:19:28 28° NW
Cosmos 1689 Rocket 3.4 18:20:01 38° WSW 18:20:01 38° WSW 18:22:13 10° SSW
Cosmos 2195 Rocket 4.4 18:13:33 10° S 18:19:50 72° E 18:26:10 10° NNE
Cosmos 158 Rocket 4.0 18:17:53 10° NNW 18:23:15 83° WSW 18:28:39 10° SSE
Meteor 2-8 Rocket 4.3 18:17:33 10° N 18:23:39 70° E 18:29:43 10° SSE
Cosmos 1898 Rocket 3.5 18:18:32 10° S 18:23:41 56° ESE 18:23:42 56° ESE
Cosmos 2278 Rocket 4.3 18:20:03 10° SSE 18:20:26 12° SSE 18:20:26 12° SSE
Cosmos 1680 Rocket 3.3 18:20:01 10° NNW 18:25:16 72° ENE 18:26:36 49° SE
Cosmos 1627 Rocket 4.3 18:23:34 10° S 18:29:42 76° E 18:35:58 10° N
Cosmos 2098 Rocket 4.3 18:24:05 10° S 18:30:58 64° E 18:38:19 10° NNE
Cosmos 1602 Rocket 3.5 18:27:03 10° S 18:31:22 83° W 18:31:34 79° NNW
Cosmos 1818 4.0 18:27:19 10° SW 18:32:40 58° NW 18:34:52 34° NNE
YAOGAN 1 3.7 18:30:08 10° S 18:34:15 44° W 18:38:25 10° NNW
Cosmos 1428 Rocket 4.3 18:28:27 10° S 18:34:42 78° E 18:41:02 10° N
CSL-04 Rocket 3.7 18:32:35 10° S 18:37:58 79° WSW 18:43:28 10° NNW
Helios 1A Rocket 3.9 18:35:10 10° S 18:39:09 47° W 18:43:10 10° NNW
USA 234 3.7 18:40:19 42° NE 18:40:55 43° NNE 18:47:00 10° NW
Cosmos 1092 Rocket 4.2 18:38:43 10° SSW 18:44:53 68° W 18:51:03 10° N
ATLAS 5 CENTAUR R/B 4.1 18:44:31 10° NW 18:46:30 13° NNW 18:47:38 12° N
Iridium 4 Rocket 3.8 18:41:47 10° N 18:47:28 71° W 18:52:41 10° S
SJ 16-02 3.2 18:50:34 10° WSW 18:54:24 29° WNW 18:55:59 23° NNW
Cosmos 2344 4.3 18:45:55 10° NW 18:55:14 69° NE 18:59:35 44° ESE
Cosmos 1937 Rocket 4.5 18:53:37 10° SSW 18:56:46 37° SSW 18:56:46 37° SSW
Cosmos 2112 Rocket 4.4 18:57:29 10° NNW 19:02:19 62° W 19:02:19 62° W
X-37B 4.2 19:05:21 10° W 19:05:31 11° W 19:05:31 11° W
Lacrosse 5 3.5 19:20:34 10° WNW 19:24:15 31° WSW 19:24:15 31° WSW
CZ-2C R/B 3.6 19:27:19 45° WNW 19:27:20 45° WNW 19:32:37 10° SW
NOSS 3-1 (C) 4.2 19:26:34 10° NW 19:34:11 72° WSW 19:34:39 71° SSW
USA 267 4.1 19:51:34 46° W 19:51:34 46° W 19:56:01 10° WSW
USA 229 DEB 4.4 19:43:47 10° NW 19:49:18 54° WNW 19:49:18 54° WNW
USA 229 4.4 19:43:53 10° NW 19:49:21 53° NW 19:49:21 53° NW
